[[{"header":{"parameterUnit":"m.s-1","parameterCategory":1,"la1":30.2991,"la2":30.254,"lo1":-89.0895,"lo2":-89.0444,"dx":0.0017,"dy":0.0017,"nx":28,"ny":28,"refTime":"2022-12-16T15:00:00:Z","depth":0,"parameterNumber":2,"parameterNumberName":"U-component_of_WINDS"},"data":[0,0,0,0,0,0,0,0,0,0,0,0,0,0,0,0,0,0,0,0,0,0,0,0,0,0,0,0,0,0,0,0,0,0,0,0,0,0,0,0,0,0,0,0,0,0,0,0,0,0,0,0,0,0,0,0,0,0,-1.1674,-1.1674,0,-1.1734,-1.1734,-1.1735,-1.1717,-1.1715,-1.1714,-1.1713,-1.1777,-1.178,-1.1783,0,0,0,0,0,0,0,0,0,0,0,0,0,-1.1546,-1.1548,-1.1674,-1.1674,-1.1675,-1.1733,-1.1734,-1.1735,-1.1717,-1.1715,-1.1714,-1.1712,-1.1776,-1.1779,-1.1783,0,0,0,0,0,0,0,0,0,0,0,0,0,-1.1603,-1.1549,-1.1673,-1.1673,-1.1674,-1.1733,-1.1734,-1.1735,-1.1717,-1.1715,-1.1713,-1.1712,-1.1775,-1.1779,-1.1783,-1.1848,0,0,-1.1797,-1.1798,0,0,0,0,0,0,0,0,-1.16,-1.1608,-1.1672,-1.1673,-1.1674,-1.1716,-1.1713,-1.1773,-1.1718,-1.1701,-1.1713,-1.1711,-1.1758,-1.1764,-1.1779,-1.1851,-1.1854,-1.1797,-1.18,-1.1801,-1.1803,0,0,0,0,0,0,0,-1.1596,-1.1605,-1.1697,-1.1673,-1.1674,-1.1671,-1.1677,-1.1724,-1.174,-1.1702,-1.1701,-1.1708,-1.1758,-1.1775,-1.1781,-1.1855,-1.1797,-1.1801,-1.1803,-1.1805,-1.1983,-1.1985,0,0,0,0,0,0,-1.1591,-1.1602,-1.1696,-1.1699,-1.1631,-1.1674,-1.1681,-1.1704,-1.1739,-1.1742,-1.171,-1.1707,-1.1769,-1.1776,-1.1783,-1.1861,-1.1801,-1.1805,-1.1808,-1.1981,-1.1984,-1.1986,0,0,0,0,0,0,-1.1589,-1.16,-1.1693,-1.165,-1.1662,-1.1679,-1.1705,-1.1706,-1.1723,-1.1745,-1.1748,-1.1724,-1.1768,-1.1777,-1.1832,-1.1863,-1.1807,-1.1811,-1.1978,-1.1982,-1.1985,-1.2018,0,0,0,0,0,0,-1.1585,-1.1599,-1.1623,-1.1651,-1.1664,-1.174,-1.1707,-1.1709,-1.173,-1.1728,-1.1759,-1.1762,-1.1767,-1.1826,-1.1836,-1.1868,-1.1815,-1.1976,-1.198,-1.1984,-1.2014,-1.2022,-1.2029,0,0,0,0,0,-1.1581,-1.1631,-1.1624,-1.1636,-1.1695,-1.1742,-1.175,-1.1753,-1.1733,-1.1758,-1.1772,-1.1761,-1.1858,-1.1831,-1.1843,-1.1877,-1.1974,-1.1979,-1.1983,-1.2011,-1.202,-1.2028,0,0,0,0,0,0,-1.1607,-1.1634,-1.1628,-1.1688,-1.1713,-1.1739,-1.177,-1.1763,-1.1795,-1.1791,-1.1795,-1.1802,-1.1859,-1.1873,-1.1843,-1.1941,-1.1913,-1.192,-1.193,-1.1939,-1.1946,-1.1942,-1.1818,0,0,0,0,0,-1.1619,-1.1655,-1.1677,-1.1728,-1.1741,-1.1754,-1.1775,-1.1775,-1.1801,-1.1812,-1.183,-1.1856,-1.1893,-1.1917,-1.1951,-1.2016,-1.2023,-1.2045,-1.2052,-1.2058,-1.2065,-1.21,-1.2111,-1.2002,-1.2002,-1.2001,0,0,-1.1646,-1.1666,-1.1688,-1.1734,-1.1753,-1.1791,-1.1763,-1.1803,-1.1831,-1.1818,-1.1871,-1.1885,-1.1915,-1.1976,-1.2003,-1.1989,-1.2096,-1.2064,-1.2069,-1.2072,-1.2106,-1.2117,-1.2126,-1.2005,-1.2004,-1.2004,0,0,-1.1714,-1.1732,-1.1777,-1.1797,-1.1826,-1.1834,-1.1844,-1.1872,-1.188,-1.1933,-1.1924,-1.1958,-1.2021,-1.2043,-1.2062,-1.2138,-1.213,-1.2149,-1.2187,-1.2222,-1.2231,-1.2238,-1.2266,-1.2276,-1.2156,-1.2156,-1.2156,0,-1.1744,-1.1799,-1.1801,-1.1842,-1.1863,-1.1852,-1.1898,-1.1917,-1.1957,-1.1972,-1.1956,-1.2034,-1.2054,-1.2119,-1.2138,-1.2153,-1.2166,-1.2146,-1.2229,-1.2237,-1.2244,-1.227,-1.2281,-1.2158,-1.2158,-1.2158,-1.2157,0,-1.1835,-1.1873,-1.1906,-1.1943,-1.1968,-1.2011,-1.2021,-1.2045,-1.2044,-1.2054,-1.2108,-1.2131,-1.217,-1.2186,-1.2185,-1.2252,-1.2242,-1.2228,-1.2199,-1.2256,-1.2281,-1.2291,-1.2161,-1.216,-1.216,-1.2159,0,0,-1.1921,-1.1959,-1.1971,-1.1988,-1.2019,-1.2049,-1.2093,-1.213,-1.2151,-1.2179,-1.2216,-1.2269,-1.2256,-1.2278,-1.2279,-1.231,-1.2369,-1.2292,-1.2293,-1.2306,-1.2444,-1.2455,-1.2467,-1.2364,-1.2366,-1.2367,-1.2442,0,-1.1992,-1.2067,-1.207,-1.2139,-1.2175,-1.2165,-1.2202,-1.2226,-1.2237,-1.227,-1.2282,-1.2319,-1.2299,-1.2312,-1.2342,-1.2356,-1.2397,-1.235,-1.2399,-1.2401,-1.2392,-1.248,-1.2492,-1.2561,-1.2452,-1.2453,-1.2455,0,-1.2085,-1.2114,-1.2187,-1.2213,-1.2228,-1.2262,-1.2296,-1.2327,-1.2355,-1.236,-1.2385,-1.2382,-1.2427,-1.2397,-1.246,-1.2428,-1.2448,-1.2458,-1.2461,-1.2466,-1.2431,-1.2488,-1.2583,-1.2594,-1.247,-1.2469,-1.2468,0,-1.2141,-1.2199,-1.225,-1.2264,-1.2296,-1.232,-1.2335,-1.236,-1.2382,-1.2413,-1.2428,-1.2464,-1.2483,-1.2512,-1.2519,-1.2496,-1.2582,-1.2552,-1.2589,-1.2589,-1.2607,-1.2606,-1.2708,-1.262,-1.262,-1.262,-1.2619,0,-1.222,-1.2265,-1.2275,-1.2307,-1.2357,-1.236,-1.2409,-1.2422,-1.2445,-1.2479,-1.2473,-1.2505,-1.2513,-1.2547,-1.2553,-1.2605,-1.2614,-1.262,-1.2621,-1.2621,-1.262,-1.2635,-1.263,-1.2622,-1.2622,-1.2621,-1.2621,0,-1.2292,-1.2301,-1.2355,-1.238,-1.2388,-1.2424,-1.2446,-1.2476,-1.2486,-1.2529,-1.254,-1.2555,-1.2595,-1.2605,-1.2653,-1.2657,-1.2718,-1.2715,-1.2709,-1.2709,-1.2745,-1.2741,-1.2859,-1.2875,-1.2776,-1.2777,-1.2778,0,-1.2342,-1.2376,-1.2405,-1.2426,-1.2442,-1.2477,-1.25,-1.2504,-1.2528,-1.2562,-1.2589,-1.2627,-1.2659,-1.2724,-1.274,-1.2777,-1.2774,-1.2813,-1.278,-1.2778,-1.2775,-1.2773,-1.2777,-1.282,-1.2821,-1.2821,-1.2822,0,-1.243,-1.2433,-1.2465,-1.2499,-1.2525,-1.2553,-1.2578,-1.2597,-1.2605,-1.2633,-1.2673,-1.2697,-1.2746,-1.2785,-1.2822,-1.2838,-1.2832,-1.2832,-1.2843,-1.2843,-1.2838,-1.2842,-1.2726,-1.283,-1.2829,-1.2828,-1.2828,-1.2828,-1.2493,-1.2523,-1.2547,-1.2583,-1.2603,-1.2627,-1.2657,-1.267,-1.2703,-1.2743,-1.2744,-1.2788,-1.2814,-1.2863,-1.2881,-1.2917,-1.2905,-1.292,-1.2924,-1.2928,-1.2931,-1.2832,-1.2923,-1.2923,-1.2923,-1.2923,-1.2923,0,-1.2581,-1.2596,-1.2629,-1.2665,-1.2694,-1.2684,-1.2713,-1.2738,-1.2776,-1.2801,-1.2832,-1.2878,-1.2916,-1.2935,-1.2973,-1.2998,-1.2996,-1.3007,-1.3006,-1.301,-1.2939,-1.2926,-1.3008,-1.3008,-1.3008,-1.3008,-1.3008,-1.3008,-1.2631,-1.268,-1.2686,-1.2746,-1.2761,-1.2803,-1.282,-1.2843,-1.2862,-1.2914,-1.2945,-1.2957,-1.298,-1.3019,-1.3054,-1.3059,-1.3073,-1.3086,-1.309,-1.3024,-1.3015,-1.3007,-1.2995,-1.3089,-1.309,-1.3158,-1.3158,-1.3159]},{"header":{"parameterUnit":"m.s-1","parameterCategory":1,"la1":30.2991,"la2":30.254,"lo1":-89.0895,"lo2":-89.0444,"dx":0.0017,"dy":0.0017,"nx":28,"ny":28,"refTime":"2022-12-16T15:00:00:Z","depth":0,"parameterNumber":3,"parameterNumberName":"V-component_of_WINDS"},"data":[0,0,0,0,0,0,0,0,0,0,0,0,0,0,0,0,0,0,0,0,0,0,0,0,0,0,0,0,0,0,0,0,0,0,0,0,0,0,0,0,0,0,0,0,0,0,0,0,0,0,0,0,0,0,0,0,0,0,3.0298,3.0299,0,3.037,3.037,3.0371,3.0363,3.0362,3.0361,3.036,3.0429,3.0432,3.0435,0,0,0,0,0,0,0,0,0,0,0,0,0,3.0149,3.0151,3.0298,3.0299,3.03,3.0369,3.037,3.0371,3.0363,3.0362,3.0361,3.0359,3.0428,3.0432,3.0435,0,0,0,0,0,0,0,0,0,0,0,0,0,3.0216,3.0152,3.0298,3.0304,3.0305,3.0369,3.037,3.0372,3.0364,3.0362,3.036,3.0359,3.0427,3.0431,3.0436,3.0496,0,0,3.0449,3.0451,0,0,0,0,0,0,0,0,3.0212,3.0222,3.0302,3.0304,3.0305,3.0356,3.0343,3.0413,3.0364,3.0341,3.036,3.0358,3.0406,3.0412,3.0429,3.05,3.0503,3.0449,3.0452,3.0454,3.0455,0,0,0,0,0,0,0,3.0208,3.0218,3.0326,3.0303,3.0305,3.0302,3.0309,3.0357,3.0382,3.0343,3.0343,3.0352,3.0406,3.0425,3.043,3.0504,3.0449,3.0453,3.0456,3.0457,3.0625,3.0626,0,0,0,0,0,0,3.0202,3.0215,3.0324,3.0328,3.0254,3.0306,3.0314,3.0341,3.0382,3.0386,3.0353,3.0351,3.0418,3.0425,3.0433,3.0504,3.0454,3.0458,3.046,3.0623,3.0625,3.0627,0,0,0,0,0,0,3.0199,3.0212,3.0321,3.0271,3.0285,3.031,3.034,3.0344,3.0362,3.0389,3.0393,3.0367,3.0417,3.0427,3.048,3.0507,3.046,3.0464,3.0621,3.0623,3.0626,3.0649,0,0,0,0,0,0,3.0195,3.0211,3.0236,3.0272,3.0288,3.0369,3.0342,3.0346,3.037,3.0368,3.0404,3.0408,3.0417,3.0474,3.0485,3.0512,3.0467,3.0618,3.0622,3.0625,3.0646,3.0653,3.0658,0,0,0,0,0,3.0189,3.0239,3.0237,3.025,3.0319,3.037,3.0379,3.0389,3.0372,3.0396,3.0413,3.0407,3.0503,3.0479,3.0491,3.052,3.0617,3.0621,3.0625,3.0644,3.0651,3.0658,0,0,0,0,0,0,3.0204,3.0244,3.0242,3.0305,3.0335,3.0369,3.04,3.0397,3.0431,3.0428,3.0438,3.0446,3.0499,3.0515,3.0489,3.058,3.0557,3.0564,3.0567,3.0575,3.058,3.0574,3.0471,0,0,0,0,0,3.0215,3.0254,3.0287,3.0339,3.0354,3.0374,3.0397,3.0402,3.0432,3.0444,3.0465,3.0494,3.053,3.0553,3.0588,3.0649,3.0655,3.0675,3.0681,3.0685,3.069,3.0721,3.0729,3.064,3.064,3.064,0,0,3.0237,3.0264,3.0288,3.0343,3.0366,3.0405,3.0385,3.0427,3.0455,3.045,3.0502,3.0518,3.055,3.0607,3.0633,3.0622,3.0716,3.069,3.0694,3.0696,3.0726,3.0734,3.0741,3.0643,3.0643,3.0642,0,0,3.0297,3.0322,3.0368,3.0392,3.0427,3.044,3.0451,3.0486,3.0496,3.0549,3.0545,3.0578,3.0641,3.0663,3.0682,3.0749,3.0743,3.076,3.079,3.0819,3.0826,3.0832,3.0854,3.0862,3.0766,3.0766,3.0766,0,3.032,3.038,3.0391,3.0434,3.0457,3.0455,3.0499,3.0521,3.0566,3.0581,3.0569,3.0646,3.0668,3.0728,3.0744,3.0761,3.0772,3.0755,3.0825,3.0831,3.0837,3.0857,3.0865,3.0767,3.0767,3.0767,3.0767,0,3.0404,3.0446,3.0478,3.0522,3.0548,3.0592,3.0608,3.0633,3.0636,3.0649,3.0701,3.0727,3.0766,3.0781,3.0784,3.0841,3.0833,3.0823,3.08,3.0847,3.0866,3.0874,3.077,3.0769,3.0769,3.0768,0,0,3.0475,3.0524,3.0536,3.0555,3.0593,3.0624,3.0667,3.0706,3.0726,3.0757,3.0791,3.0843,3.0834,3.0856,3.0861,3.0887,3.0935,3.0873,3.0874,3.0882,3.0996,3.1002,3.1011,3.0932,3.0934,3.0935,3.0993,0,3.0537,3.0613,3.0624,3.069,3.0727,3.0725,3.0761,3.0788,3.0801,3.0833,3.0847,3.0884,3.0869,3.0882,3.0908,3.0924,3.0958,3.092,3.0961,3.0963,3.0951,3.1022,3.1029,3.1082,3.1001,3.1002,3.1003,0,3.062,3.0653,3.0723,3.0755,3.077,3.0803,3.0838,3.087,3.0899,3.0906,3.0931,3.0932,3.0973,3.095,3.1005,3.0979,3.0997,3.1007,3.1009,3.1011,3.0984,3.1024,3.11,3.1107,3.1015,3.1014,3.1014,0,3.0661,3.0724,3.0773,3.0789,3.0828,3.0851,3.0868,3.0895,3.0917,3.0948,3.0962,3.0997,3.1015,3.1041,3.1051,3.1033,3.1105,3.1083,3.111,3.111,3.1124,3.1123,3.1201,3.1139,3.1139,3.1139,3.1139,0,3.0728,3.077,3.0792,3.0822,3.0868,3.088,3.0925,3.0941,3.0965,3.0996,3.0997,3.1026,3.1039,3.1069,3.1077,3.112,3.1129,3.1135,3.1136,3.1134,3.1132,3.1144,3.1139,3.1141,3.114,3.114,3.114,0,3.0782,3.0798,3.0852,3.0884,3.0893,3.0925,3.0952,3.098,3.0993,3.1033,3.1043,3.1062,3.1098,3.1111,3.1155,3.116,3.1209,3.1208,3.1199,3.1199,3.1225,3.1221,3.1312,3.1323,3.1255,3.1256,3.1257,0,3.0822,3.0855,3.0891,3.0912,3.093,3.0965,3.0988,3.0999,3.1022,3.1057,3.108,3.1116,3.1145,3.1202,3.1219,3.1251,3.125,3.1279,3.1255,3.125,3.1247,3.1244,3.1246,3.1283,3.1284,3.1285,3.1285,0,3.0892,3.0898,3.0931,3.0967,3.0994,3.1022,3.1049,3.1066,3.1082,3.1107,3.1144,3.1167,3.1211,3.1246,3.1279,3.1294,3.1291,3.1293,3.13,3.1297,3.129,3.1292,3.1209,3.129,3.129,3.1289,3.1289,3.1289,3.0939,3.0967,3.0996,3.1032,3.1053,3.1079,3.1106,3.1122,3.1154,3.1191,3.1196,3.1235,3.1261,3.1305,3.1322,3.1351,3.1343,3.1354,3.1357,3.1359,3.136,3.1287,3.1357,3.1357,3.1357,3.1357,3.1357,0,3.1006,3.1025,3.1058,3.1096,3.1124,3.112,3.115,3.1172,3.1207,3.1232,3.1261,3.1302,3.1335,3.1355,3.1387,3.1407,3.1406,3.1415,3.1412,3.1415,3.1367,3.1356,3.1415,3.1415,3.1415,3.1415,3.1415,3.1415,3.1044,3.109,3.11,3.1156,3.1173,3.1212,3.1229,3.1251,3.1271,3.1317,3.1345,3.1358,3.138,3.1414,3.1443,3.1448,3.1459,3.1468,3.1472,3.1425,3.1419,3.1413,3.1403,3.1471,3.1471,3.1518,3.1518,3.1518]}]]